{"data":{"norad_id":65556,"intl_designator":"2025-201G","name":"GEESAT-5 07","alt_names":[],"object_type":"PAYLOAD","status":"ACTIVE","operator":null,"country":"PRC","launch_date":"2025-09-08","launch_site_code":"YSLA","launch_vehicle":null,"mission":null,"orbit_class":"UNKNOWN","rcs_meters":null,"size_class":null,"mass_kg":null,"dimensions":null,"purposes":[],"wikipedia_slug":null,"has_3d_model":false,"image_url":null,"decayed_at":null,"tle_current":{"epoch":"2026-09-20T10:10:56.453664Z","epoch_age_seconds":159150,"freshness":"FRESH","line1":"1 65556U 25201G   26263.42426451  .00000842  00000+0  12608-3 0  9997","line2":"2 65556  49.9896 317.2584 0013201 317.6362  42.3557 14.84402695 55941","mean_motion":14.84402695,"eccentricity":0.0013201,"inclination_deg":49.9896,"raan_deg":317.2584,"arg_perigee_deg":317.6362,"mean_anomaly_deg":42.3557,"bstar":0.00012608,"rev_number":5594,"period_min":97.008716357794,"perigee_km":606.22907725271,"apogee_km":624.69357555408,"semimajor_km":6993.5983264034,"source":"CELESTRAK","updated_at":"2026-09-21T09:00:15.425749Z"}}}